Location: Bremen
(53.0793°N, 8.8017°E)
Time: 06:11:51
(UTC+01:00)

ARIANE 6 FM1 Upper Stage - Visible Passes

Search period start: 09 December 2025 00:00
Search period end: 19 December 2025 00:00
Orbit: 522 x 611 km, 62.0° (Epoch: 08 December)

Date Brightness Start Highest point End Pass type
(mag) Time Alt. Az. Time Alt. Az. Time Alt. Az.
09 Dec 6.4 07:36:14 10° SE 07:37:48 12° ESE 07:39:21 10° E visible
09 Dec 6.5 17:31:52 10° W 17:32:57 11° WSW 17:34:02 10° SW visible
10 Dec 6.0 07:35:27 10° SSE 07:38:03 17° ESE 07:40:38 10° E visible
11 Dec 5.5 07:35:09 10° S 07:38:19 23° SE 07:41:29 10° ENE visible
12 Dec 4.8 07:35:04 10° S 07:38:38 31° SE 07:42:10 10° ENE visible
13 Dec 4.0 07:35:09 10° SSW 07:38:57 42° SE 07:42:44 10° ENE visible
14 Dec 6.3 06:00:53 10° ESE 06:01:04 10° ESE 06:01:15 10° ESE visible
14 Dec 3.3 07:35:22 10° SSW 07:39:19 58° SE 07:43:13 10° NE visible
15 Dec 5.7 05:59:04 10° SSE 06:01:15 14° ESE 06:03:26 10° E visible
15 Dec 2.7 07:35:40 10° SW 07:39:41 79° SE 07:43:40 10° NE visible
16 Dec 5.3 05:58:31 10° S 06:01:28 20° ESE 06:04:23 10° ENE visible
16 Dec 2.5 07:36:03 10° SW 07:40:05 79° NW 07:44:04 10° NE visible
17 Dec 4.7 05:58:18 10° S 06:01:42 27° SE 06:05:05 10° ENE visible
17 Dec 2.6 07:36:31 10° WSW 07:40:30 61° NW 07:44:26 10° NE visible
18 Dec 4.0 05:58:15 10° SSW 06:01:58 36° SE 06:05:38 10° ENE visible
18 Dec 2.8 07:37:02 10° WSW 07:40:57 48° NNW 07:44:48 10° NE visible
